Crane Lake, MN

5:32 AM CST on December 06, 2016 (GMT -0600)
Crane Lake

Weather History for KCDD - November, 2012

Change the Weather History Date:

Friday, November 16, 2012

  Actual Average Record
Temperature  
Mean Temperature 24 °F -  
Max Temperature 39 °F 32 °F 50 °F (2001)
Min Temperature 8 °F 19 °F -7 °F (2002)
Degree Days  
Heating Degree Days 42    
Moisture  
Dew Point 15 °F    
Average Humidity 73    
Maximum Humidity 93    
Minimum Humidity 39    
Precipitation  
Precipitation 0.00 in - - ()
Sea Level Pressure  
Sea Level Pressure 30.40 in    
Wind  
Wind Speed 2 mph (SSE)    
Max Wind Speed 9 mph    
Max Gust Speed -    
Visibility 10 miles    
Events      
Averages and records for this station are not official NWS values.
T = Trace of Precipitation, MM = Missing Value Source: NWS Daily Summary

Daily Weather History Graph

Daily Weather History Graph

Search for Another Location

Airport or City:

Trip Planner

Search our weather history database for the weather conditions in past years. The results will help you decide how hot, cold, wet, or windy it might be!

Date:

Astronomy

Nov. 16, 2012 Rise Set
Actual Time 7:19 AM CST 4:29 PM CST
Civil Twilight 6:45 AM CST 5:03 PM CST
Nautical Twilight 6:07 AM CST 5:41 PM CST
Astronomical Twilight 5:30 AM CST 6:18 PM CST
Moon 10:18 AM CST (11/16) 7:26 PM CST (11/16)
Length of Visible Light 10h 18m
Length of Day
9h 10m
Waxing Crescent, 12% of the Moon is Illuminated
Nov 16
Waxing Crescent
Nov 20
First Quarter
Nov 28
Full
Dec 6
Last Quarter
Dec 13
New

Hourly Weather History & Observations

Time (CST) Temp. Windchill Dew Point Humidity Pressure Visibility Wind Dir Wind Speed Gust Speed Precip Events Conditions
12:06 AM 12.2 °F - 10.4 °F 92% 30.46 in 10.0 mi Calm Calm - N/A   Clear
12:26 AM 12.2 °F - 10.4 °F 92% 30.48 in 10.0 mi Calm Calm - N/A   Clear
12:46 AM 12.2 °F - 10.4 °F 92% 30.48 in 10.0 mi Calm Calm - N/A   Clear
1:06 AM 12.2 °F - 10.4 °F 92% 30.48 in 10.0 mi Calm Calm - N/A   Clear
1:26 AM 12.2 °F - 8.6 °F 85% 30.49 in 10.0 mi Calm Calm - N/A   Clear
1:46 AM 12.2 °F - 8.6 °F 85% 30.48 in 10.0 mi Calm Calm - N/A   Clear
2:06 AM 12.2 °F - 8.6 °F 85% 30.49 in 10.0 mi Calm Calm - N/A   Clear
2:26 AM 10.4 °F - 8.6 °F 92% 30.49 in 10.0 mi Calm Calm - N/A   Clear
2:46 AM 10.4 °F - 8.6 °F 92% 30.48 in 10.0 mi Calm Calm - N/A   Clear
3:06 AM 10.4 °F - 8.6 °F 92% 30.47 in 10.0 mi Calm Calm - N/A   Clear
3:26 AM 10.4 °F - 8.6 °F 92% 30.46 in 10.0 mi Calm Calm - N/A   Clear
3:46 AM 10.4 °F - 8.6 °F 92% 30.46 in 10.0 mi Calm Calm - N/A   Clear
4:06 AM 10.4 °F - 8.6 °F 92% 30.46 in 10.0 mi Calm Calm - N/A   Clear
4:26 AM 10.4 °F - 8.6 °F 92% 30.46 in 10.0 mi Calm Calm - N/A   Clear
4:46 AM 10.4 °F - 8.6 °F 92% 30.46 in 10.0 mi Calm Calm - N/A   Clear
5:06 AM 10.4 °F - 6.8 °F 85% 30.47 in 10.0 mi Calm Calm - N/A   Clear
5:26 AM 10.4 °F - 6.8 °F 85% 30.46 in 10.0 mi Calm Calm - N/A   Clear
5:46 AM 10.4 °F - 8.6 °F 92% 30.46 in 10.0 mi Calm Calm - N/A   Clear
6:06 AM 10.4 °F - 8.6 °F 92% 30.45 in 10.0 mi Calm Calm - N/A   Clear
6:26 AM 10.4 °F - 6.8 °F 85% 30.45 in 10.0 mi Calm Calm - N/A   Clear
6:46 AM 10.4 °F - 6.8 °F 85% 30.45 in 10.0 mi Calm Calm - N/A   Clear
7:06 AM 8.6 °F - 6.8 °F 92% 30.46 in 10.0 mi Calm Calm - N/A   Clear
7:26 AM 8.6 °F - 6.8 °F 92% 30.46 in 10.0 mi Calm Calm - N/A   Clear
7:46 AM 10.4 °F - 8.6 °F 92% 30.47 in 10.0 mi Calm Calm - N/A   Clear
8:06 AM 10.4 °F - 8.6 °F 92% 30.46 in 10.0 mi Calm Calm - N/A   Clear
8:26 AM 12.2 °F - 10.4 °F 92% 30.46 in 10.0 mi Calm Calm - N/A   Clear
8:46 AM 17.6 °F - 15.8 °F 93% 30.45 in 10.0 mi Calm Calm - N/A   Clear
9:06 AM 19.4 °F - 17.6 °F 93% 30.45 in 10.0 mi Calm Calm - N/A   Clear
9:26 AM 23.0 °F 17.0 °F 21.2 °F 93% 30.45 in 10.0 mi South 4.6 mph - N/A   Clear
9:46 AM 24.8 °F 19.1 °F 23.0 °F 93% 30.46 in 10.0 mi South 4.6 mph - N/A   Clear
10:06 AM 28.4 °F 21.2 °F 21.2 °F 74% 30.46 in 10.0 mi South 6.9 mph - N/A   Clear
10:26 AM 30.2 °F 22.6 °F 21.2 °F 69% 30.46 in 10.0 mi South 8.1 mph - N/A   Clear
10:46 AM 30.2 °F 22.6 °F 19.4 °F 64% 30.46 in 10.0 mi South 8.1 mph - N/A   Clear
11:06 AM 33.8 °F 29.6 °F 19.4 °F 56% 30.45 in 10.0 mi SSE 4.6 mph - N/A   Clear
11:26 AM 33.8 °F 28.6 °F 17.6 °F 52% 30.45 in 10.0 mi South 5.8 mph - N/A   Clear
11:46 AM 33.8 °F 28.6 °F 17.6 °F 52% 30.44 in 10.0 mi South 5.8 mph - N/A   Clear
12:06 PM 35.6 °F 29.9 °F 19.4 °F 52% 30.43 in 10.0 mi South 6.9 mph - N/A   Clear
12:26 PM 35.6 °F 30.7 °F 19.4 °F 52% 30.42 in 10.0 mi South 5.8 mph - N/A   Clear
12:46 PM 37.4 °F 32.1 °F 17.6 °F 45% 30.40 in 10.0 mi South 6.9 mph - N/A   Clear
1:06 PM 39.2 °F 35.9 °F 17.6 °F 42% 30.39 in 10.0 mi South 4.6 mph - N/A   Clear
1:26 PM 39.2 °F 35.0 °F 15.8 °F 39% 30.38 in 10.0 mi South 5.8 mph - N/A   Clear
1:46 PM 39.2 °F 35.9 °F 15.8 °F 39% 30.37 in 10.0 mi SSE 4.6 mph - N/A   Clear
2:06 PM 39.2 °F 35.0 °F 15.8 °F 39% 30.36 in 10.0 mi South 5.8 mph - N/A   Clear
2:26 PM 37.4 °F 34.9 °F 17.6 °F 45% 30.35 in 10.0 mi SSE 3.5 mph - N/A   Clear
2:46 PM 37.4 °F 33.8 °F 17.6 °F 45% 30.35 in 10.0 mi SSE 4.6 mph - N/A   Clear
3:06 PM 37.4 °F 34.9 °F 17.6 °F 45% 30.34 in 10.0 mi SSE 3.5 mph - N/A   Clear
3:26 PM 37.4 °F 34.9 °F 19.4 °F 48% 30.34 in 10.0 mi SE 3.5 mph - N/A   Clear
3:46 PM 35.6 °F 31.7 °F 19.4 °F 52% 30.34 in 10.0 mi SSE 4.6 mph - N/A   Clear
4:06 PM 33.8 °F - 19.4 °F 56% 30.34 in 10.0 mi Calm Calm - N/A   Clear
4:26 PM 32.0 °F - 17.6 °F 55% 30.34 in 10.0 mi Calm Calm - N/A   Clear
4:46 PM 30.2 °F - 17.6 °F 60% 30.33 in 10.0 mi Calm Calm - N/A   Clear
5:06 PM 28.4 °F - 19.4 °F 69% 30.33 in 10.0 mi Calm Calm - N/A   Clear
5:26 PM 28.4 °F 24.6 °F 19.4 °F 69% 30.33 in 10.0 mi SE 3.5 mph - N/A   Clear
5:46 PM 28.4 °F - 19.4 °F 69% 30.31 in 10.0 mi Calm Calm - N/A   Clear
6:06 PM 30.2 °F - 21.2 °F 69% 30.31 in 10.0 mi Calm Calm - N/A   Clear
6:26 PM 30.2 °F 26.7 °F 19.4 °F 64% 30.30 in 10.0 mi SSE 3.5 mph - N/A   Clear
6:46 PM 30.2 °F 23.4 °F 19.4 °F 64% 30.29 in 10.0 mi SSE 6.9 mph - N/A   Clear
7:06 PM 30.2 °F 25.4 °F 19.4 °F 64% 30.30 in 10.0 mi South 4.6 mph - N/A   Clear
7:46 PM 28.4 °F 24.6 °F 19.4 °F 69% 30.30 in 10.0 mi SSE 3.5 mph - N/A   Clear
8:06 PM 28.4 °F 23.3 °F 19.4 °F 69% 30.29 in 10.0 mi SSE 4.6 mph - N/A   Clear
8:26 PM 28.4 °F 23.3 °F 19.4 °F 69% 30.29 in 10.0 mi SSE 4.6 mph - N/A   Clear
8:46 PM 28.4 °F 22.2 °F 19.4 °F 69% 30.29 in 10.0 mi SSE 5.8 mph - N/A   Clear
9:06 PM 28.4 °F - 19.4 °F 69% 30.29 in 10.0 mi Calm Calm - N/A   Scattered Clouds
9:46 PM 30.2 °F 24.3 °F 21.2 °F 69% 30.29 in 10.0 mi SSE 5.8 mph - N/A   Overcast
10:06 PM 30.2 °F 25.4 °F 21.2 °F 69% 30.29 in 10.0 mi SSE 4.6 mph - N/A   Overcast
10:26 PM 30.2 °F 25.4 °F 21.2 °F 69% 30.28 in 10.0 mi SSE 4.6 mph - N/A   Overcast
10:46 PM 30.2 °F 24.3 °F 23.0 °F 75% 30.28 in 10.0 mi SSE 5.8 mph - N/A   Overcast
11:06 PM 32.0 °F 24.8 °F 23.0 °F 69% 30.27 in 10.0 mi SSE 8.1 mph - N/A   Overcast
11:26 PM 32.0 °F 24.2 °F 23.0 °F 69% 30.27 in 10.0 mi South 9.2 mph - N/A   Overcast
11:46 PM 32.0 °F 26.4 °F 23.0 °F 69% 30.27 in 10.0 mi SSE 5.8 mph - N/A   Overcast